GIA777 WAAA-WIMM

Flight info

Callsign GIA777
Flight time 3h 0m
Altitude 38000
Route GURNI W35 PNK L504 OBDOS M774 OTLAL DCT TPG A464 IRTAD DCT SAMKO R469 ASUNA L762 AKPAG
Aircraft B77W/H-SDE1E2E3FGHIJ2J3J4J5M1RWXY/LB1D1

Departure

Time 2026-04-24 06:45
Airport Sultan Hasanuddin International Airport (WAAA)

Arrival

Time 2026-04-24 09:45
Airport Kualanamu International Airport (WIMM)
Time Latitude Longitude Altitude Speed Heading
2026-04-24 04:52 -5.08171 119.54514 46 ft 0 kts 299°
2026-04-24 06:33 -5.08176 119.54521 46 ft 3 kts 299°
2026-04-24 06:34 -5.08185 119.54538 46 ft 2 kts 300°
2026-04-24 06:34 -5.08192 119.54551 43 ft 3 kts 281°
2026-04-24 06:34 -5.08192 119.54566 43 ft 3 kts 226°
2026-04-24 06:34 -5.08176 119.54578 40 ft 3 kts 207°
2026-04-24 06:35 -5.08166 119.54583 45 ft 0 kts 210°
2026-04-24 06:39 -5.08180 119.54576 40 ft 8 kts 206°
2026-04-24 06:39 -5.08237 119.54553 46 ft 9 kts 204°
2026-04-24 06:39 -5.08293 119.54521 46 ft 9 kts 209°
2026-04-24 06:39 -5.08353 119.54491 46 ft 11 kts 204°
2026-04-24 06:40 -5.08429 119.54455 46 ft 12 kts 207°
2026-04-24 06:40 -5.08497 119.54441 46 ft 10 kts 167°
2026-04-24 06:40 -5.08547 119.54485 46 ft 10 kts 128°
2026-04-24 06:40 -5.08584 119.54545 46 ft 10 kts 129°
2026-04-24 06:41 -5.08642 119.54540 46 ft 10 kts 211°
2026-04-24 06:41 -5.08722 119.54493 46 ft 14 kts 211°
2026-04-24 06:41 -5.08807 119.54443 46 ft 14 kts 209°
2026-04-24 06:41 -5.08894 119.54395 46 ft 14 kts 209°
2026-04-24 06:42 -5.08980 119.54346 46 ft 14 kts 212°
2026-04-24 06:42 -5.09064 119.54293 46 ft 14 kts 209°
2026-04-24 06:42 -5.09156 119.54289 46 ft 14 kts 146°
2026-04-24 06:42 -5.09210 119.54371 46 ft 13 kts 118°
2026-04-24 06:43 -5.09216 119.54411 46 ft 2 kts 52°
2026-04-24 06:43 -5.09211 119.54413 47 ft 0 kts 33°
2026-04-24 06:44 -5.09209 119.54415 47 ft 5 kts 32°
2026-04-24 06:44 -5.09042 119.54513 49 ft 60 kts 30°
2026-04-24 06:44 -5.08421 119.54864 45 ft 142 kts 30°
2026-04-24 06:44 -5.07373 119.55466 134 ft 194 kts 30°
2026-04-24 06:45 -5.06256 119.56165 1104 ft 174 kts 28°
2026-04-24 06:45 -5.05151 119.56524 1890 ft 173 kts 354°
2026-04-24 06:45 -5.04004 119.56107 2230 ft 187 kts 326°
2026-04-24 06:45 -5.02683 119.55678 2426 ft 218 kts 359°
2026-04-24 06:46 -5.01096 119.55772 2705 ft 246 kts
2026-04-24 06:46 -4.99349 119.55816 3392 ft 257 kts
2026-04-24 06:46 -4.97527 119.55842 4237 ft 264 kts
2026-04-24 06:46 -4.95664 119.55848 5073 ft 272 kts 359°
2026-04-24 06:47 -4.93758 119.55577 5911 ft 280 kts 350°
2026-04-24 06:47 -4.91845 119.55162 6799 ft 283 kts 349°
2026-04-24 06:47 -4.89900 119.54743 7670 ft 286 kts 350°
2026-04-24 06:47 -4.87934 119.54343 8559 ft 289 kts 351°
2026-04-24 06:48 -4.85964 119.53955 9407 ft 294 kts 351°
2026-04-24 06:48 -4.83951 119.53536 10178 ft 297 kts 345°
2026-04-24 06:48 -4.82132 119.52511 10826 ft 308 kts 316°
2026-04-24 06:48 -4.80948 119.50718 11717 ft 310 kts 293°
2026-04-24 06:49 -4.80162 119.48682 12629 ft 316 kts 290°
2026-04-24 06:49 -4.79408 119.46603 13566 ft 320 kts 290°
2026-04-24 06:49 -4.78652 119.44486 14425 ft 324 kts 290°
2026-04-24 06:49 -4.77886 119.42343 15340 ft 328 kts 290°
2026-04-24 06:50 -4.77108 119.40178 16203 ft 333 kts 290°
2026-04-24 06:50 -4.76312 119.37978 16727 ft 338 kts 290°
2026-04-24 06:50 -4.75499 119.35744 16788 ft 344 kts 290°
2026-04-24 06:50 -4.74677 119.33493 16796 ft 343 kts 290°
2026-04-24 06:51 -4.73857 119.31256 16787 ft 340 kts 290°
2026-04-24 06:51 -4.73042 119.29036 16778 ft 338 kts 290°
2026-04-24 06:51 -4.72232 119.26831 16787 ft 336 kts 290°
2026-04-24 06:51 -4.71425 119.24635 16792 ft 336 kts 290°
2026-04-24 06:52 -4.70618 119.22441 16798 ft 335 kts 290°
2026-04-24 06:52 -4.69810 119.20247 16796 ft 335 kts 290°
2026-04-24 06:52 -4.69004 119.18056 16796 ft 335 kts 290°
2026-04-24 06:52 -4.68197 119.15862 16795 ft 335 kts 290°
2026-04-24 06:53 -4.67389 119.13667 16796 ft 336 kts 290°
2026-04-24 06:53 -4.66582 119.11473 16803 ft 336 kts 290°
2026-04-24 06:53 -4.65771 119.09272 16804 ft 337 kts 290°
2026-04-24 06:53 -4.64961 119.07069 16801 ft 337 kts 290°
2026-04-24 06:54 -4.64148 119.04863 16801 ft 338 kts 290°
2026-04-24 06:54 -4.63334 119.02651 16802 ft 338 kts 290°
2026-04-24 06:54 -4.62518 119.00435 16804 ft 339 kts 290°
2026-04-24 06:54 -4.61720 118.98269 16804 ft 339 kts 290°
2026-04-24 06:55 -4.61219 118.96909 16801 ft 339 kts 290°
2026-04-24 06:55 -4.61059 118.96473 16801 ft 339 kts 290°
2026-04-24 06:57 -4.60341 118.94524 16803 ft 339 kts 290°
2026-04-24 06:57 -4.59501 118.92246 16826 ft 363 kts 290°
2026-04-24 06:57 -4.58586 118.89762 16830 ft 396 kts 290°
2026-04-24 06:57 -4.57604 118.87098 16824 ft 415 kts 290°
2026-04-24 06:58 -4.56601 118.84375 16911 ft 418 kts 290°
2026-04-24 06:58 -4.55606 118.81671 18115 ft 409 kts 290°
2026-04-24 06:58 -4.54630 118.79024 19267 ft 401 kts 290°
2026-04-24 06:58 -4.53671 118.76423 20359 ft 397 kts 290°
2026-04-24 06:59 -4.52712 118.73822 21229 ft 400 kts 290°
2026-04-24 06:59 -4.51741 118.71183 21963 ft 407 kts 290°
2026-04-24 06:59 -4.50753 118.68501 22672 ft 414 kts 290°
2026-04-24 06:59 -4.50091 118.66701 23162 ft 417 kts 290°
2026-04-24 07:00 -4.48738 118.63023 24024 ft 424 kts 290°
2026-04-24 07:00 -4.47714 118.60240 24671 ft 428 kts 290°
2026-04-24 07:00 -4.47031 118.58383 25088 ft 430 kts 290°
2026-04-24 07:00 -4.45989 118.55552 25723 ft 435 kts 291°
2026-04-24 07:01 -4.44936 118.52692 26363 ft 440 kts 291°
2026-04-24 07:01 -4.43873 118.49805 27008 ft 444 kts 291°
2026-04-24 07:01 -4.42799 118.46887 27634 ft 449 kts 291°
2026-04-24 07:01 -4.41715 118.43941 28248 ft 453 kts 291°
2026-04-24 07:02 -4.40618 118.40963 28850 ft 458 kts 291°
2026-04-24 07:02 -4.39509 118.37954 29448 ft 463 kts 291°
2026-04-24 07:02 -4.38391 118.34915 30032 ft 467 kts 291°
2026-04-24 07:02 -4.37265 118.31849 30520 ft 471 kts 291°
2026-04-24 07:03 -4.36128 118.28756 31008 ft 475 kts 291°
2026-04-24 07:03 -4.34977 118.25624 31316 ft 484 kts 291°
2026-04-24 07:03 -4.33799 118.22419 31403 ft 497 kts 291°
2026-04-24 07:03 -4.32593 118.19140 31530 ft 507 kts 291°
2026-04-24 07:04 -4.31366 118.15801 31733 ft 514 kts 291°
2026-04-24 07:04 -4.30125 118.12423 31990 ft 519 kts 291°
2026-04-24 07:04 -4.28877 118.09027 32354 ft 520 kts 291°
2026-04-24 07:04 -4.27630 118.05635 32822 ft 519 kts 291°
2026-04-24 07:05 -4.26385 118.02247 33316 ft 517 kts 291°
2026-04-24 07:05 -4.25164 117.98929 33765 ft 517 kts 291°
2026-04-24 07:05 -4.23921 117.95547 34155 ft 517 kts 291°
2026-04-24 07:05 -4.22698 117.92224 34604 ft 514 kts 291°
2026-04-24 07:06 -4.21466 117.88876 35120 ft 510 kts 291°
2026-04-24 07:06 -4.20243 117.85554 35655 ft 506 kts 291°
2026-04-24 07:06 -4.19013 117.82211 36127 ft 503 kts 291°
2026-04-24 07:06 -4.17804 117.78927 36581 ft 501 kts 291°
2026-04-24 07:07 -4.16616 117.75703 37008 ft 499 kts 291°
2026-04-24 07:07 -4.15419 117.72452 37448 ft 497 kts 291°
2026-04-24 07:07 -4.13010 117.65913 37800 ft 500 kts 291°
2026-04-24 07:08 -4.10598 117.59372 37822 ft 508 kts 291°
2026-04-24 07:08 -4.08133 117.52683 37823 ft 515 kts 291°
2026-04-24 07:09 -4.05645 117.45934 37817 ft 517 kts 291°
2026-04-24 07:09 -4.03148 117.39159 37812 ft 520 kts 291°
2026-04-24 07:10 -4.00640 117.32358 37812 ft 521 kts 291°
2026-04-24 07:10 -3.98127 117.25541 37812 ft 523 kts 291°
2026-04-24 07:11 -3.96222 117.18510 37817 ft 524 kts 282°
2026-04-24 07:11 -3.94877 117.11457 37817 ft 524 kts 281°
2026-04-24 07:12 -3.93502 117.04299 37812 ft 523 kts 282°
2026-04-24 07:12 -3.92036 116.97243 37815 ft 523 kts 283°
2026-04-24 07:13 -3.90506 116.90140 37809 ft 522 kts 283°
2026-04-24 07:13 -3.88972 116.83043 37813 ft 521 kts 283°
2026-04-24 07:14 -3.87459 116.76008 37810 ft 520 kts 283°
2026-04-24 07:14 -3.85941 116.68934 37812 ft 519 kts 283°
2026-04-24 07:15 -3.84426 116.61872 37810 ft 519 kts 283°
2026-04-24 07:15 -3.82911 116.54814 37811 ft 518 kts 283°
2026-04-24 07:16 -3.81395 116.47759 37809 ft 518 kts 283°
2026-04-24 07:16 -3.79880 116.40710 37810 ft 518 kts 283°
2026-04-24 07:17 -3.78363 116.33658 37805 ft 518 kts 283°
2026-04-24 07:17 -3.76847 116.26610 37808 ft 518 kts 283°
2026-04-24 07:18 -3.75328 116.19553 37794 ft 519 kts 282°
2026-04-24 07:18 -3.73805 116.12478 37804 ft 521 kts 282°
2026-04-24 07:19 -3.72277 116.05383 37799 ft 522 kts 282°
2026-04-24 07:19 -3.70760 115.98339 37798 ft 523 kts 282°
2026-04-24 07:20 -3.69224 115.91214 37791 ft 524 kts 283°
2026-04-24 07:20 -3.67684 115.84072 37797 ft 526 kts 283°
2026-04-24 07:21 -3.66138 115.76909 37800 ft 527 kts 283°
2026-04-24 07:21 -3.64589 115.69730 37797 ft 528 kts 283°
2026-04-24 07:22 -3.63039 115.62550 37802 ft 528 kts 283°
2026-04-24 07:22 -3.61487 115.55363 37799 ft 528 kts 283°
2026-04-24 07:23 -3.59937 115.48191 37788 ft 527 kts 283°
2026-04-24 07:23 -3.58389 115.41028 37793 ft 526 kts 283°
2026-04-24 07:24 -3.56844 115.33882 37790 ft 525 kts 283°
2026-04-24 07:24 -3.55299 115.26743 37796 ft 524 kts 282°
2026-04-24 07:25 -3.53759 115.19622 37781 ft 523 kts 282°
2026-04-24 07:25 -3.52220 115.12513 37777 ft 522 kts 282°
2026-04-24 07:26 -3.50682 115.05413 37778 ft 522 kts 282°
2026-04-24 07:26 -3.49159 114.98383 37778 ft 521 kts 282°
2026-04-24 07:27 -3.47622 114.91291 37775 ft 521 kts 282°
2026-04-24 07:27 -3.46084 114.84194 37780 ft 522 kts 282°
2026-04-24 07:28 -3.44465 114.77119 37773 ft 522 kts 287°
2026-04-24 07:28 -3.41817 114.70371 37779 ft 521 kts 296°
2026-04-24 07:29 -3.38162 114.64123 37780 ft 520 kts 303°
2026-04-24 07:29 -3.34260 114.58021 37776 ft 521 kts 303°
2026-04-24 07:30 -3.30369 114.51902 37774 ft 521 kts 303°
2026-04-24 07:30 -3.26510 114.45758 37774 ft 521 kts 303°
2026-04-24 07:31 -3.22688 114.39646 37771 ft 522 kts 302°
2026-04-24 07:31 -3.18840 114.33494 37769 ft 521 kts 303°
2026-04-24 07:32 -3.14989 114.27344 37769 ft 521 kts 303°
2026-04-24 07:32 -3.11139 114.21198 37770 ft 521 kts 303°
2026-04-24 07:33 -3.07288 114.15052 37768 ft 521 kts 303°
2026-04-24 07:33 -3.03441 114.08913 37768 ft 521 kts 303°
2026-04-24 07:34 -2.99594 114.02775 37769 ft 521 kts 303°
2026-04-24 07:34 -2.95779 113.96688 37772 ft 521 kts 303°
2026-04-24 07:35 -2.91933 113.90552 37767 ft 521 kts 303°
2026-04-24 07:35 -2.88084 113.84414 37771 ft 521 kts 303°
2026-04-24 07:36 -2.84237 113.78279 37767 ft 521 kts 303°
2026-04-24 07:36 -2.80389 113.72144 37771 ft 521 kts 303°
2026-04-24 07:37 -2.76540 113.66007 37771 ft 521 kts 303°
2026-04-24 07:37 -2.72690 113.59872 37769 ft 521 kts 303°
2026-04-24 07:38 -2.68841 113.53737 37769 ft 521 kts 303°
2026-04-24 07:38 -2.64994 113.47605 37774 ft 521 kts 303°
2026-04-24 07:39 -2.61145 113.41471 37770 ft 521 kts 303°
2026-04-24 07:39 -2.57297 113.35333 37770 ft 521 kts 303°
2026-04-24 07:40 -2.53479 113.29232 37772 ft 521 kts 303°
2026-04-24 07:40 -2.49638 113.23091 37773 ft 521 kts 303°
2026-04-24 07:41 -2.45793 113.16945 37769 ft 521 kts 303°
2026-04-24 07:41 -2.41953 113.10810 37773 ft 520 kts 303°
2026-04-24 07:42 -2.38111 113.04673 37773 ft 520 kts 303°
2026-04-24 07:42 -2.34313 112.98607 37775 ft 520 kts 303°
2026-04-24 07:43 -2.30476 112.92479 37775 ft 520 kts 303°
2026-04-24 07:43 -2.26639 112.86353 37776 ft 520 kts 303°
2026-04-24 07:44 -2.22803 112.80227 37773 ft 520 kts 303°
2026-04-24 07:44 -2.18965 112.74099 37775 ft 520 kts 303°
2026-04-24 07:45 -2.15124 112.67969 37777 ft 520 kts 303°
2026-04-24 07:45 -2.11933 112.62876 37779 ft 520 kts 303°
2026-04-24 07:46 -2.08093 112.56746 37778 ft 520 kts 303°
2026-04-24 07:46 -2.04253 112.50620 37773 ft 520 kts 303°
2026-04-24 07:47 -2.00416 112.44498 37778 ft 519 kts 303°
2026-04-24 07:47 -1.96582 112.38380 37781 ft 519 kts 303°
2026-04-24 07:48 -1.92746 112.32260 37778 ft 519 kts 303°
2026-04-24 07:48 -1.88911 112.26143 37777 ft 519 kts 303°
2026-04-24 07:49 -1.85077 112.20027 37780 ft 519 kts 303°
2026-04-24 07:49 -1.81240 112.13908 37785 ft 519 kts 303°
2026-04-24 07:50 -1.77404 112.07791 37791 ft 519 kts 303°
2026-04-24 07:50 -1.73568 112.01674 37786 ft 519 kts 303°
2026-04-24 07:51 -1.69777 111.95630 37788 ft 518 kts 303°
2026-04-24 07:51 -1.65975 111.89569 37787 ft 518 kts 303°
2026-04-24 07:52 -1.62153 111.83475 37785 ft 517 kts 303°
2026-04-24 07:52 -1.58333 111.77387 37786 ft 517 kts 303°
2026-04-24 07:53 -1.54519 111.71306 37787 ft 516 kts 303°
2026-04-24 07:53 -1.50708 111.65231 37784 ft 515 kts 303°
2026-04-24 07:54 -1.46901 111.59164 37789 ft 515 kts 303°
2026-04-24 07:54 -1.43086 111.53109 37790 ft 515 kts 303°
2026-04-24 07:55 -1.39262 111.47059 37794 ft 514 kts 303°
2026-04-24 07:55 -1.35444 111.41015 37792 ft 514 kts 303°
2026-04-24 07:56 -1.31632 111.34977 37789 ft 513 kts 303°
2026-04-24 07:56 -1.27824 111.28943 37792 ft 513 kts 303°
2026-04-24 07:57 -1.24016 111.22911 37788 ft 513 kts 303°
2026-04-24 07:57 -1.20209 111.16880 37791 ft 513 kts 303°
2026-04-24 07:58 -1.16424 111.10884 37787 ft 513 kts 303°
2026-04-24 07:58 -1.12615 111.04852 37786 ft 513 kts 303°
2026-04-24 07:59 -1.08840 110.98874 37780 ft 513 kts 303°
2026-04-24 07:59 -1.05034 110.92846 37776 ft 513 kts 303°
2026-04-24 08:00 -1.01237 110.86832 37769 ft 511 kts 303°
2026-04-24 08:00 -0.97447 110.80830 37773 ft 510 kts 303°
2026-04-24 08:01 -0.93662 110.74834 37775 ft 510 kts 303°
2026-04-24 08:01 -0.89883 110.68847 37761 ft 509 kts 303°
2026-04-24 08:02 -0.86131 110.62848 37767 ft 509 kts 303°
2026-04-24 08:02 -0.82391 110.56842 37760 ft 509 kts 303°
2026-04-24 08:03 -0.78650 110.50840 37761 ft 509 kts 303°
2026-04-24 08:03 -0.74906 110.44840 37763 ft 509 kts 303°
2026-04-24 08:04 -0.71153 110.38829 37761 ft 509 kts 303°
2026-04-24 08:04 -0.67428 110.32861 37758 ft 509 kts 303°
2026-04-24 08:05 -0.63679 110.26854 37757 ft 510 kts 303°
2026-04-24 08:05 -0.59927 110.20845 37756 ft 510 kts 303°
2026-04-24 08:06 -0.56177 110.14837 37755 ft 510 kts 303°
2026-04-24 08:06 -0.52428 110.08830 37755 ft 510 kts 303°
2026-04-24 08:07 -0.48675 110.02819 37756 ft 510 kts 303°
2026-04-24 08:07 -0.44953 109.96857 37757 ft 510 kts 303°
2026-04-24 08:08 -0.41197 109.90840 37752 ft 510 kts 303°
2026-04-24 08:09 -0.35561 109.81812 37749 ft 511 kts 303°
2026-04-24 08:09 -0.31798 109.75785 37750 ft 512 kts 303°
2026-04-24 08:10 -0.28052 109.69784 37756 ft 513 kts 303°
2026-04-24 08:10 -0.24272 109.63729 37753 ft 514 kts 303°
2026-04-24 08:11 -0.20490 109.57672 37752 ft 514 kts 303°
2026-04-24 08:11 -0.16701 109.51600 37748 ft 515 kts 303°
2026-04-24 08:12 -0.12912 109.45529 37747 ft 515 kts 303°
2026-04-24 08:12 -0.09325 109.39338 37744 ft 516 kts 295°
2026-04-24 08:13 -0.06816 109.32617 37753 ft 517 kts 285°
2026-04-24 08:13 -0.05293 109.25595 37763 ft 517 kts 282°
2026-04-24 08:14 -0.03890 109.18537 37768 ft 518 kts 282°
2026-04-24 08:14 -0.02426 109.11487 37783 ft 518 kts 282°
2026-04-24 08:15 -0.00936 109.04447 37789 ft 518 kts 282°
2026-04-24 08:15 0.00526 108.97482 37799 ft 518 kts 282°
2026-04-24 08:16 0.01954 108.90432 37790 ft 518 kts 282°
2026-04-24 08:16 0.03367 108.83377 37797 ft 518 kts 282°
2026-04-24 08:17 0.04787 108.76320 37796 ft 518 kts 282°
2026-04-24 08:17 0.06204 108.69304 37797 ft 519 kts 282°
2026-04-24 08:18 0.07633 108.62237 37798 ft 519 kts 282°
2026-04-24 08:18 0.09073 108.55112 37797 ft 520 kts 282°
2026-04-24 08:19 0.10494 108.48082 37797 ft 520 kts 282°
2026-04-24 08:19 0.11926 108.40997 37799 ft 520 kts 282°
2026-04-24 08:20 0.13357 108.33914 37801 ft 520 kts 282°
2026-04-24 08:20 0.14788 108.26830 37800 ft 520 kts 282°
2026-04-24 08:21 0.16219 108.19747 37800 ft 520 kts 282°
2026-04-24 08:21 0.17651 108.12660 37803 ft 520 kts 282°
2026-04-24 08:22 0.19082 108.05576 37802 ft 520 kts 282°
2026-04-24 08:22 0.20499 107.98564 37804 ft 520 kts 282°
2026-04-24 08:23 0.21929 107.91487 37801 ft 520 kts 282°
2026-04-24 08:23 0.23360 107.84402 37803 ft 520 kts 282°
2026-04-24 08:24 0.24791 107.77322 37803 ft 520 kts 282°
2026-04-24 08:24 0.26221 107.70244 37803 ft 520 kts 281°
2026-04-24 08:25 0.27650 107.63166 37800 ft 520 kts 281°
2026-04-24 08:25 0.29081 107.56084 37802 ft 520 kts 281°
2026-04-24 08:26 0.30510 107.49007 37803 ft 520 kts 281°
2026-04-24 08:26 0.31940 107.41930 37801 ft 520 kts 281°
2026-04-24 08:27 0.33361 107.34894 37803 ft 520 kts 281°
2026-04-24 08:27 0.34792 107.27807 37802 ft 521 kts 281°
2026-04-24 08:28 0.36225 107.20712 37802 ft 521 kts 281°
2026-04-24 08:28 0.37659 107.13610 37799 ft 522 kts 281°
2026-04-24 08:29 0.39094 107.06507 37802 ft 522 kts 281°
2026-04-24 08:29 0.40514 106.99472 37810 ft 521 kts 281°
2026-04-24 08:30 0.41948 106.92372 37802 ft 521 kts 281°
2026-04-24 08:30 0.43377 106.85276 37806 ft 520 kts 281°
2026-04-24 08:31 0.44803 106.78192 37807 ft 520 kts 281°
2026-04-24 08:31 0.46227 106.71113 37805 ft 519 kts 281°
2026-04-24 08:32 0.47650 106.64040 37802 ft 519 kts 281°
2026-04-24 08:32 0.49063 106.57015 37812 ft 519 kts 281°
2026-04-24 08:33 0.50455 106.50095 37809 ft 520 kts 281°
2026-04-24 08:33 0.51879 106.43016 37809 ft 520 kts 281°
2026-04-24 08:34 0.53304 106.35934 37810 ft 520 kts 281°
2026-04-24 08:34 0.54730 106.28846 37808 ft 520 kts 281°
2026-04-24 08:35 0.56153 106.21772 37810 ft 520 kts 281°
2026-04-24 08:35 0.57345 106.15843 37814 ft 519 kts 281°
2026-04-24 08:36 0.58768 106.08767 37808 ft 519 kts 281°
2026-04-24 08:36 0.60181 106.01744 37811 ft 519 kts 281°
2026-04-24 08:37 0.61584 105.94767 37810 ft 518 kts 281°
2026-04-24 08:37 0.62999 105.87726 37806 ft 517 kts 281°
2026-04-24 08:38 0.64413 105.80696 37812 ft 515 kts 281°
2026-04-24 08:38 0.65822 105.73684 37808 ft 515 kts 281°
2026-04-24 08:39 0.67231 105.66677 37811 ft 514 kts 281°
2026-04-24 08:39 0.68639 105.59671 37814 ft 514 kts 281°
2026-04-24 08:40 0.70044 105.52678 37812 ft 513 kts 281°
2026-04-24 08:40 0.71452 105.45682 37809 ft 513 kts 281°
2026-04-24 08:41 0.72860 105.38691 37811 ft 513 kts 281°
2026-04-24 08:41 0.74266 105.31707 37818 ft 513 kts 281°
2026-04-24 08:42 0.75672 105.24724 37807 ft 512 kts 281°
2026-04-24 08:42 0.77076 105.17747 37810 ft 512 kts 281°
2026-04-24 08:43 0.78479 105.10776 37813 ft 512 kts 281°
2026-04-24 08:43 0.79881 105.03808 37811 ft 512 kts 281°
2026-04-24 08:44 0.81267 104.96915 37812 ft 512 kts 281°
2026-04-24 08:44 0.82670 104.89943 37803 ft 512 kts 281°
2026-04-24 08:45 0.84075 104.82961 37802 ft 513 kts 281°
2026-04-24 08:45 0.85470 104.76021 37801 ft 513 kts 281°
2026-04-24 08:46 0.86878 104.69022 37804 ft 514 kts 281°
2026-04-24 08:46 0.88285 104.62020 37805 ft 514 kts 281°
2026-04-24 08:47 0.89705 104.55016 37803 ft 514 kts 282°
2026-04-24 08:47 0.91880 104.48211 37800 ft 515 kts 293°
2026-04-24 08:48 0.94991 104.41762 37808 ft 515 kts 296°
2026-04-24 08:48 0.98157 104.35331 37798 ft 516 kts 295°
2026-04-24 08:49 1.01253 104.28884 37803 ft 515 kts 295°
2026-04-24 08:49 1.04232 104.22363 37801 ft 515 kts 289°
2026-04-24 08:50 1.06163 104.15490 37810 ft 513 kts 280°
2026-04-24 08:50 1.07032 104.08476 37816 ft 512 kts 275°
2026-04-24 08:51 1.07736 104.01387 37795 ft 513 kts 275°
2026-04-24 08:51 1.08505 103.94390 37796 ft 513 kts 275°
2026-04-24 08:52 1.08965 103.87293 37801 ft 511 kts 268°
2026-04-24 08:52 1.08271 103.80241 37804 ft 510 kts 261°
2026-04-24 08:53 1.07277 103.73223 37792 ft 510 kts 261°
2026-04-24 08:53 1.06329 103.66203 37791 ft 510 kts 262°
2026-04-24 08:54 1.05417 103.59169 37781 ft 510 kts 262°
2026-04-24 08:54 1.04504 103.52132 37781 ft 510 kts 262°
2026-04-24 08:55 1.03574 103.45103 37779 ft 511 kts 261°
2026-04-24 08:55 1.02618 103.38071 37781 ft 511 kts 261°
2026-04-24 08:56 1.01663 103.31028 37779 ft 512 kts 261°
2026-04-24 08:56 1.00710 103.23975 37781 ft 512 kts 261°
2026-04-24 08:57 1.00467 103.16884 37771 ft 513 kts 276°
2026-04-24 08:57 1.02075 103.09952 37770 ft 514 kts 290°
2026-04-24 08:58 1.04721 103.03313 37766 ft 515 kts 292°
2026-04-24 08:58 1.07389 102.96755 37788 ft 515 kts 291°
2026-04-24 08:59 1.10033 102.90086 37767 ft 516 kts 291°
2026-04-24 08:59 1.12641 102.83405 37771 ft 516 kts 290°
2026-04-24 09:00 1.15243 102.76721 37762 ft 516 kts 290°
2026-04-24 09:00 1.17833 102.70083 37769 ft 516 kts 291°
2026-04-24 09:01 1.20437 102.63413 37776 ft 516 kts 291°
2026-04-24 09:01 1.23047 102.56731 37768 ft 516 kts 291°
2026-04-24 09:02 1.25652 102.50059 37774 ft 515 kts 291°
2026-04-24 09:02 1.28256 102.43386 37767 ft 515 kts 291°
2026-04-24 09:03 1.30860 102.36715 37781 ft 515 kts 291°
2026-04-24 09:03 1.33464 102.30042 37766 ft 515 kts 291°
2026-04-24 09:04 1.36060 102.23389 37771 ft 515 kts 291°
2026-04-24 09:04 1.38660 102.16726 37775 ft 514 kts 291°
2026-04-24 09:05 1.41757 102.10294 37771 ft 514 kts 300°
2026-04-24 09:05 1.45448 102.04177 37763 ft 514 kts 301°
2026-04-24 09:06 1.49133 101.98131 37772 ft 515 kts 301°
2026-04-24 09:06 1.52832 101.91985 37775 ft 517 kts 301°
2026-04-24 09:07 1.56516 101.85812 37776 ft 517 kts 300°
2026-04-24 09:07 1.62038 101.76544 37772 ft 518 kts 300°
2026-04-24 09:08 1.65697 101.70408 37773 ft 517 kts 300°
2026-04-24 09:08 1.69379 101.64235 37776 ft 516 kts 301°
2026-04-24 09:09 1.73054 101.58074 37763 ft 516 kts 301°
2026-04-24 09:09 1.76726 101.51917 37768 ft 515 kts 301°
2026-04-24 09:10 1.80391 101.45772 37767 ft 515 kts 301°
2026-04-24 09:10 1.84058 101.39622 37760 ft 515 kts 301°
2026-04-24 09:11 1.87719 101.33480 37762 ft 515 kts 301°
2026-04-24 09:11 1.91387 101.27327 37762 ft 515 kts 301°
2026-04-24 09:12 1.95052 101.21179 37760 ft 515 kts 301°
2026-04-24 09:12 1.98718 101.15029 37760 ft 515 kts 301°
2026-04-24 09:13 2.02378 101.08887 37760 ft 515 kts 301°
2026-04-24 09:13 2.06042 101.02738 37762 ft 515 kts 301°
2026-04-24 09:14 2.09657 100.96670 37764 ft 515 kts 300°
2026-04-24 09:14 2.13320 100.90522 37769 ft 515 kts 300°
2026-04-24 09:15 2.16981 100.84376 37767 ft 514 kts 301°
2026-04-24 09:15 2.20618 100.78268 37769 ft 514 kts 301°
2026-04-24 09:16 2.24295 100.72095 37760 ft 508 kts 300°
2026-04-24 09:16 2.26058 100.69134 37673 ft 497 kts 300°
2026-04-24 09:16 2.27838 100.66144 36633 ft 503 kts 300°
2026-04-24 09:17 2.29618 100.63154 36071 ft 497 kts 300°
2026-04-24 09:17 2.31374 100.60203 35555 ft 492 kts 300°
2026-04-24 09:17 2.33114 100.57279 35028 ft 487 kts 300°
2026-04-24 09:17 2.34841 100.54378 34491 ft 484 kts 300°
2026-04-24 09:18 2.36556 100.51499 33978 ft 480 kts 300°
2026-04-24 09:18 2.38262 100.48641 33418 ft 478 kts 300°
2026-04-24 09:18 2.39959 100.45802 32868 ft 474 kts 300°
2026-04-24 09:18 2.41643 100.42983 32340 ft 470 kts 300°
2026-04-24 09:19 2.43313 100.40187 31824 ft 466 kts 300°
2026-04-24 09:19 2.44970 100.37411 31327 ft 463 kts 300°
2026-04-24 09:19 2.46612 100.34660 30822 ft 460 kts 300°
2026-04-24 09:19 2.48246 100.31922 30334 ft 457 kts 300°
2026-04-24 09:20 2.49871 100.29199 29818 ft 455 kts 300°
2026-04-24 09:20 2.51489 100.26486 29238 ft 453 kts 300°
2026-04-24 09:20 2.53097 100.23790 28694 ft 450 kts 300°
2026-04-24 09:20 2.54693 100.21115 28177 ft 446 kts 300°
2026-04-24 09:21 2.56277 100.18459 27674 ft 443 kts 300°
2026-04-24 09:21 2.57849 100.15823 27179 ft 440 kts 300°
2026-04-24 09:21 2.59411 100.13204 26675 ft 437 kts 300°
2026-04-24 09:21 2.60961 100.10605 26193 ft 434 kts 300°
2026-04-24 09:22 2.62504 100.08018 25697 ft 432 kts 300°
2026-04-24 09:22 2.64036 100.05447 25215 ft 430 kts 300°
2026-04-24 09:22 2.65565 100.02884 24713 ft 428 kts 300°
2026-04-24 09:22 2.67087 100.00329 24226 ft 427 kts 300°
2026-04-24 09:23 2.68052 99.98711 23916 ft 426 kts 300°
2026-04-24 09:23 2.70076 99.95317 23251 ft 424 kts 301°
2026-04-24 09:23 2.71548 99.92769 22720 ft 420 kts 296°
2026-04-24 09:23 2.72626 99.90088 22380 ft 412 kts 288°
2026-04-24 09:24 2.73214 99.88299 22145 ft 407 kts 287°
2026-04-24 09:24 2.74041 99.85614 21812 ft 400 kts 286°
2026-04-24 09:24 2.74844 99.82969 21496 ft 395 kts 287°
2026-04-24 09:24 2.75650 99.80359 21182 ft 391 kts 287°
2026-04-24 09:25 2.76467 99.77775 20870 ft 388 kts 287°
2026-04-24 09:25 2.77290 99.75215 20574 ft 386 kts 287°
2026-04-24 09:25 2.78118 99.72667 20251 ft 384 kts 288°
2026-04-24 09:25 2.78946 99.70139 19950 ft 382 kts 288°
2026-04-24 09:26 2.79774 99.67616 19638 ft 381 kts 288°
2026-04-24 09:26 2.80600 99.65103 19331 ft 380 kts 288°
2026-04-24 09:26 2.81425 99.62593 19019 ft 379 kts 288°
2026-04-24 09:26 2.82247 99.60092 18707 ft 379 kts 288°
2026-04-24 09:27 2.83070 99.57590 18398 ft 379 kts 288°
2026-04-24 09:27 2.83892 99.55088 18089 ft 378 kts 288°
2026-04-24 09:27 2.84712 99.52590 17754 ft 378 kts 288°
2026-04-24 09:27 2.85531 99.50099 17436 ft 376 kts 288°
2026-04-24 09:28 2.86346 99.47619 17105 ft 375 kts 288°
2026-04-24 09:28 2.87158 99.45146 16804 ft 373 kts 288°
2026-04-24 09:28 2.87965 99.42688 16497 ft 371 kts 288°
2026-04-24 09:28 2.88769 99.40239 16188 ft 369 kts 288°
2026-04-24 09:29 2.89568 99.37805 15914 ft 368 kts 288°
2026-04-24 09:29 2.90364 99.35382 15631 ft 366 kts 288°
2026-04-24 09:29 2.91156 99.32969 15325 ft 364 kts 288°
2026-04-24 09:29 2.91944 99.30568 15028 ft 362 kts 288°
2026-04-24 09:30 2.92727 99.28184 14741 ft 360 kts 288°
2026-04-24 09:30 2.93767 99.25016 14355 ft 357 kts 288°
2026-04-24 09:30 2.94278 99.23456 14178 ft 356 kts 288°
2026-04-24 09:30 2.95047 99.21113 13879 ft 354 kts 288°
2026-04-24 09:31 2.95813 99.18778 13580 ft 352 kts 288°
2026-04-24 09:31 2.96574 99.16460 13254 ft 350 kts 288°
2026-04-24 09:31 2.97331 99.14158 12972 ft 345 kts 289°
2026-04-24 09:31 2.98398 99.12039 12592 ft 343 kts 309°
2026-04-24 09:32 3.00026 99.10344 12211 ft 335 kts 316°
2026-04-24 09:32 3.01694 99.08732 11935 ft 333 kts 316°
2026-04-24 09:32 3.03346 99.07130 11515 ft 337 kts 316°
2026-04-24 09:32 3.05048 99.05468 11139 ft 332 kts 316°
2026-04-24 09:33 3.06630 99.03913 10666 ft 314 kts 316°
2026-04-24 09:33 3.08139 99.02422 10233 ft 297 kts 315°
2026-04-24 09:33 3.09588 99.00985 9887 ft 294 kts 315°
2026-04-24 09:33 3.11013 98.99569 9488 ft 298 kts 315°
2026-04-24 09:34 3.12490 98.98101 9075 ft 300 kts 315°
2026-04-24 09:34 3.13972 98.96629 8663 ft 296 kts 315°
2026-04-24 09:34 3.15387 98.95222 8250 ft 278 kts 315°
2026-04-24 09:34 3.16735 98.93879 7897 ft 276 kts 315°
2026-04-24 09:35 3.18116 98.92504 7553 ft 283 kts 315°
2026-04-24 09:35 3.19523 98.91103 7170 ft 286 kts 315°
2026-04-24 09:35 3.20938 98.89695 6800 ft 288 kts 315°
2026-04-24 09:35 3.22372 98.88266 6486 ft 288 kts 315°
2026-04-24 09:36 3.23784 98.86859 6029 ft 286 kts 315°
2026-04-24 09:36 3.25185 98.85462 5638 ft 282 kts 315°
2026-04-24 09:36 3.26565 98.84088 5244 ft 278 kts 315°
2026-04-24 09:36 3.27928 98.82730 4877 ft 275 kts 315°
2026-04-24 09:37 3.29278 98.81386 4519 ft 276 kts 315°
2026-04-24 09:37 3.30661 98.80009 4134 ft 281 kts 315°
2026-04-24 09:37 3.32023 98.78676 3984 ft 271 kts 316°
2026-04-24 09:37 3.33388 98.77370 3851 ft 272 kts 316°
2026-04-24 09:38 3.34755 98.76078 3731 ft 269 kts 317°
2026-04-24 09:38 3.36098 98.74805 3620 ft 262 kts 316°
2026-04-24 09:38 3.37398 98.73567 3497 ft 254 kts 316°
2026-04-24 09:38 3.38655 98.72371 3403 ft 247 kts 317°
2026-04-24 09:39 3.39949 98.71133 3354 ft 266 kts 317°
2026-04-24 09:39 3.41299 98.69844 3226 ft 268 kts 318°
2026-04-24 09:39 3.42814 98.68844 3075 ft 258 kts 344°
2026-04-24 09:39 3.44555 98.68739 2985 ft 250 kts 15°
2026-04-24 09:40 3.46063 98.69495 2877 ft 238 kts 39°
2026-04-24 09:40 3.47275 98.70566 2743 ft 227 kts 45°
2026-04-24 09:40 3.48369 98.71658 2633 ft 217 kts 46°
2026-04-24 09:40 3.49404 98.72701 2595 ft 204 kts 47°
2026-04-24 09:41 3.50371 98.73670 2452 ft 195 kts 46°
2026-04-24 09:41 3.51298 98.74596 2369 ft 183 kts 47°
2026-04-24 09:41 3.52183 98.75480 2276 ft 175 kts 47°
2026-04-24 09:41 3.53044 98.76341 2222 ft 177 kts 47°
2026-04-24 09:42 3.53913 98.77209 2119 ft 176 kts 47°
2026-04-24 09:42 3.54770 98.78064 2068 ft 173 kts 46°
2026-04-24 09:42 3.55638 98.78931 1873 ft 177 kts 47°
2026-04-24 09:42 3.56489 98.79779 1611 ft 166 kts 47°
2026-04-24 09:43 3.57278 98.80567 1423 ft 158 kts 46°
2026-04-24 09:43 3.58068 98.81355 1211 ft 158 kts 46°
2026-04-24 09:43 3.58820 98.82106 1021 ft 148 kts 46°
2026-04-24 09:43 3.59517 98.82801 857 ft 140 kts 45°
2026-04-24 09:44 3.60199 98.83477 711 ft 138 kts 46°
2026-04-24 09:44 3.60882 98.84167 473 ft 134 kts 44°
2026-04-24 09:44 3.61517 98.84804 256 ft 125 kts 43°
2026-04-24 09:44 3.62145 98.85433 177 ft 130 kts 44°
2026-04-24 09:45 3.62768 98.86053 56 ft 122 kts 45°
2026-04-24 09:45 3.63317 98.86595 39 ft 95 kts 44°
2026-04-24 09:45 3.63679 98.86951 43 ft 51 kts 44°
2026-04-24 09:45 3.63832 98.87105 42 ft 27 kts 44°
2026-04-24 09:46 3.63993 98.87264 41 ft 36 kts 48°
2026-04-24 09:46 3.64097 98.87456 40 ft 24 kts 73°
2026-04-24 09:46 3.64121 98.87536 39 ft 6 kts 73°
2026-04-24 09:46 3.64124 98.87547 41 ft 0 kts 73°
2026-04-24 09:47 3.64124 98.87549 41 ft 0 kts 73°
2026-04-24 09:47 3.64125 98.87552 41 ft 1 kts 74°
2026-04-24 09:47 3.64131 98.87572 42 ft 5 kts 75°
2026-04-24 09:47 3.64147 98.87622 42 ft 12 kts 68°
2026-04-24 09:48 3.64192 98.87710 43 ft 14 kts 54°
2026-04-24 09:48 3.64257 98.87787 44 ft 14 kts 45°
2026-04-24 09:48 3.64352 98.87875 44 ft 18 kts 43°
2026-04-24 09:48 3.64419 98.87953 44 ft 13 kts 77°
2026-04-24 09:49 3.64414 98.87974 44 ft 0 kts 117°
2026-04-24 09:49 3.64392 98.88008 44 ft 16 kts 128°
2026-04-24 09:49 3.64311 98.88094 45 ft 17 kts 137°
2026-04-24 09:49 3.64280 98.88123 45 ft 0 kts 137°
2026-04-24 09:50 3.64238 98.88166 45 ft 17 kts 134°
2026-04-24 09:50 3.64142 98.88176 45 ft 13 kts 217°
2026-04-24 09:50 3.64075 98.88113 44 ft 14 kts 224°
2026-04-24 09:50 3.64002 98.88041 45 ft 15 kts 225°
2026-04-24 09:51 3.63942 98.87981 45 ft 10 kts 220°
2026-04-24 09:51 3.63899 98.87966 45 ft 4 kts 193°
2026-04-24 09:51 3.63869 98.87959 45 ft 5 kts 194°
2026-04-24 09:51 3.63838 98.87936 45 ft 6 kts 226°
2026-04-24 09:52 3.63824 98.87921 45 ft 2 kts 226°
2026-04-24 09:52 3.63818 98.87915 45 ft 0 kts 225°